WELCOME TO TCFT

Voted One Of The Best Flight Schools In The USA

 

 

BECOME AN AIRLINE PILOT

Treasure Coast Flight Training is committed to serving all of your aviation needs as a full service flight academy, aircraft rental facility, and pilot shop

 

 

Questions About Becoming An Airline Pilot?

 

 

What Our Graduates Say

 

 

The training I received with Treasure Coast Flight Training prepared me to become a professional pilot

 

Nathan Meisner

Pilot - Cessna Caravan - USA

Professional yet relaxed environment. Truly an enjoyable experience to fly with TCFT

 

Sophia

Certified Flight Instructor - China

The training I needed to get me to where I am now!

 

Enderson Rafael

Pilot - Go Airlines - Brazil

Thank you TCFT for making me an airline pilot!

 

Kyle Barrett

Pilot - GoJet Airlines - USA

Current Conditions

 

Metar

 

KSUA 250050Z 00000KT 7SM VCTS SCT025 SCT030 25/24 A3007

 

TAF

 

TAF AMD KSUA 242236Z 2423/2518 11012KT P6SM VCTS FEW020 SCT030CB BKN250 TEMPO 2423/2424 3SM TSRA BKN030CB FM250100 11005KT P6SM VCSH SCT025 BKN250 FM250300 12003KT P6SM SCT025 SCT250 FM251530 10008KT P6SM VCSH SCT035 SCT070

 

 

Look No Further. Get Started Today